• In Belarus
  • List of Countries
  • For 7 days
  • Water Temperature
  • Satellite Maps
  • Weather Map
  • Weather Widgets
  • user-avatar
    Login

    Hourly Weather Maracay

    Today, 27 June, Thursday

    Time Temperature Precipitation Wind Pressure Humidity
    00:00 +23°C° 0 mm 1 mps 712 mmHg 86%
    01:00 +22°C° 0 mm 1 mps 711 mmHg 87%
    02:00 +22°C° 0 mm 1 mps 711 mmHg 87%
    03:00 +22°C° 0 mm 1 mps 711 mmHg 88%
    04:00 +22°C° 0 mm 1 mps 711 mmHg 88%
    05:00 +21°C° 0 mm 0 mps 711 mmHg 85%
    06:00 +22°C° 0 mm 0 mps 712 mmHg 82%
    07:00 +23°C° 0 mm 0 mps 712 mmHg 80%
    08:00 +26°C° 0 mm 1 mps 712 mmHg 73%
    09:00 +28°C° 0 mm 1 mps 713 mmHg 66%
    10:00 +29°C° 0 mm 2 mps 713 mmHg 60%
    11:00 +29°C° 0 mm 2 mps 712 mmHg 59%
    12:00 +30°C° 0 mm 3 mps 712 mmHg 57%
    13:00 +30°C° 0 mm 3 mps 712 mmHg 56%
    14:00 +30°C° 0 mm 3 mps 711 mmHg 60%
    15:00 +29°C° 0 mm 2 mps 710 mmHg 63%
    16:00 +29°C° 0 mm 2 mps 710 mmHg 66%
    17:00 +27°C° 0.1 mm 1 mps 710 mmHg 73%
    18:00 +26°C° 0.1 mm 1 mps 710 mmHg 80%
    19:00 +24°C° 0.1 mm 1 mps 711 mmHg 88%
    20:00 +24°C° 0 mm 1 mps 711 mmHg 89%
    21:00 +24°C° 0 mm 1 mps 712 mmHg 90%
    22:00 +23°C° 0 mm 1 mps 712 mmHg 91%
    23:00 +23°C° 0 mm 1 mps 712 mmHg 90%

    Tomorrow, 28 June, Friday

    Time Temperature Precipitation Wind Pressure Humidity
    00:00 +23°C° 0 mm 1 mps 711 mmHg 90%
    01:00 +23°C° 0 mm 1 mps 711 mmHg 89%
    02:00 +23°C° 0 mm 1 mps 711 mmHg 88%
    03:00 +23°C° 0 mm 1 mps 711 mmHg 86%
    04:00 +22°C° 0 mm 1 mps 711 mmHg 84%
    05:00 +23°C° 0 mm 1 mps 711 mmHg 82%
    06:00 +22°C° 0 mm 0 mps 712 mmHg 79%
    07:00 +23°C° 0 mm 0 mps 712 mmHg 76%
    08:00 +26°C° 0 mm 1 mps 713 mmHg 72%
    09:00 +28°C° 0 mm 2 mps 713 mmHg 68%
    10:00 +29°C° 0 mm 3 mps 713 mmHg 65%
    11:00 +29°C° 0.4 mm 3 mps 713 mmHg 66%
    12:00 +29°C° 0.4 mm 3 mps 712 mmHg 67%
    13:00 +30°C° 0.4 mm 3 mps 712 mmHg 69%
    14:00 +30°C° 0.5 mm 3 mps 711 mmHg 70%
    15:00 +29°C° 0.5 mm 2 mps 711 mmHg 70%
    16:00 +29°C° 0.5 mm 2 mps 710 mmHg 71%
    17:00 +28°C° 1 mm 2 mps 710 mmHg 77%
    18:00 +26°C° 1 mm 2 mps 711 mmHg 84%
    19:00 +25°C° 1 mm 2 mps 711 mmHg 90%
    20:00 +24°C° 1.3 mm 2 mps 711 mmHg 90%
    21:00 +24°C° 1.3 mm 1 mps 712 mmHg 91%
    22:00 +24°C° 1.3 mm 1 mps 712 mmHg 91%
    23:00 +24°C° 1 mm 1 mps 712 mmHg 91%

    Day after tomorrow, 29 June, Saturday

    Time Temperature Precipitation Wind Pressure Humidity
    00:00 +24°C° 1 mm 1 mps 712 mmHg 91%
    01:00 +24°C° 1 mm 1 mps 711 mmHg 91%
    02:00 +24°C° 0.3 mm 1 mps 711 mmHg 91%
    03:00 +24°C° 0.3 mm 1 mps 711 mmHg 91%
    04:00 +23°C° 0.3 mm 1 mps 711 mmHg 90%
    05:00 +24°C° 0.3 mm 1 mps 711 mmHg 90%
    06:00 +24°C° 0.3 mm 1 mps 712 mmHg 90%
    07:00 +24°C° 0.3 mm 1 mps 712 mmHg 89%
    08:00 +26°C° 0 mm 1 mps 712 mmHg 82%
    09:00 +27°C° 0 mm 1 mps 713 mmHg 76%
    10:00 +28°C° 0 mm 1 mps 713 mmHg 69%
    11:00 +29°C° 0.1 mm 2 mps 712 mmHg 66%
    12:00 +30°C° 0.1 mm 2 mps 712 mmHg 64%
    13:00 +30°C° 0.1 mm 3 mps 712 mmHg 61%
    14:00 +30°C° 0.2 mm 2 mps 711 mmHg 64%
    15:00 +29°C° 0.2 mm 2 mps 711 mmHg 67%
    16:00 +29°C° 0.2 mm 1 mps 710 mmHg 70%
    17:00 +27°C° 0 mm 1 mps 710 mmHg 76%
    18:00 +26°C° 0 mm 1 mps 711 mmHg 82%
    19:00 +24°C° 0 mm 1 mps 711 mmHg 88%
    20:00 +24°C° 0 mm 1 mps 711 mmHg 89%
    21:00 +24°C° 0 mm 1 mps 712 mmHg 90%
    22:00 +24°C° 0 mm 1 mps 712 mmHg 90%
    23:00 +23°C° 0 mm 1 mps 712 mmHg 90%

    30 June, Sunday

    Time Temperature Precipitation Wind Pressure Humidity
    00:00 +23°C° 0 mm 1 mps 711 mmHg 90%
    01:00 +23°C° 0 mm 1 mps 711 mmHg 90%
    02:00 +23°C° 0 mm 1 mps 711 mmHg 89%
    03:00 +23°C° 0 mm 1 mps 711 mmHg 89%
    04:00 +24°C° 0 mm 1 mps 711 mmHg 88%
    05:00 +22°C° 0 mm 0 mps 711 mmHg 87%
    06:00 +23°C° 0 mm 0 mps 712 mmHg 85%
    07:00 +23°C° 0 mm 0 mps 712 mmHg 83%
    08:00 +27°C° 0 mm 1 mps 712 mmHg 77%
    09:00 +28°C° 0 mm 1 mps 713 mmHg 70%
    10:00 +29°C° 0 mm 1 mps 713 mmHg 64%
    11:00 +30°C° 0.2 mm 2 mps 712 mmHg 64%
    12:00 +30°C° 0.2 mm 2 mps 712 mmHg 64%
    13:00 +30°C° 0.2 mm 3 mps 711 mmHg 64%
    14:00 +30°C° 1.3 mm 2 mps 710 mmHg 70%
    15:00 +29°C° 1.3 mm 2 mps 710 mmHg 75%
    16:00 +28°C° 1.3 mm 2 mps 710 mmHg 80%
    17:00 +27°C° 1.9 mm 2 mps 710 mmHg 83%
    18:00 +26°C° 1.9 mm 2 mps 710 mmHg 86%
    19:00 +25°C° 1.9 mm 2 mps 711 mmHg 90%
    20:00 +25°C° 1.3 mm 2 mps 711 mmHg 90%
    21:00 +25°C° 1.3 mm 2 mps 712 mmHg 90%
    22:00 +24°C° 1.3 mm 1 mps 712 mmHg 90%
    23:00 +24°C° 0.3 mm 1 mps 712 mmHg 90%

    1 July, Monday

    Time Temperature Precipitation Wind Pressure Humidity
    00:00 +24°C° 0.3 mm 1 mps 711 mmHg 90%
    01:00 +24°C° 0.3 mm 1 mps 711 mmHg 90%
    02:00 +24°C° 0.2 mm 1 mps 711 mmHg 89%
    03:00 +24°C° 0.2 mm 1 mps 711 mmHg 89%
    04:00 +24°C° 0.2 mm 1 mps 711 mmHg 89%
    05:00 +22°C° 0 mm 0 mps 711 mmHg 88%
    06:00 +23°C° 0 mm 0 mps 712 mmHg 87%
    07:00 +24°C° 0 mm 0 mps 712 mmHg 86%
    08:00 +27°C° 0.2 mm 1 mps 712 mmHg 81%
    09:00 +28°C° 0.2 mm 1 mps 713 mmHg 76%
    10:00 +29°C° 0.2 mm 2 mps 713 mmHg 70%
    11:00 +30°C° 0.5 mm 2 mps 713 mmHg 69%
    12:00 +30°C° 0.5 mm 2 mps 712 mmHg 68%
    13:00 +30°C° 0.5 mm 2 mps 712 mmHg 66%
    14:00 +30°C° 0.8 mm 2 mps 711 mmHg 71%
    15:00 +29°C° 0.8 mm 2 mps 711 mmHg 76%
    16:00 +28°C° 0.8 mm 2 mps 711 mmHg 81%
    17:00 +27°C° 0.4 mm 2 mps 711 mmHg 84%
    18:00 +26°C° 0.4 mm 2 mps 711 mmHg 87%
    19:00 +25°C° 0.4 mm 2 mps 711 mmHg 90%
    20:00 +25°C° 1.2 mm 2 mps 712 mmHg 91%
    21:00 +24°C° 1.2 mm 2 mps 712 mmHg 91%
    22:00 +24°C° 1.2 mm 2 mps 713 mmHg 92%
    23:00 +24°C° 1.9 mm 2 mps 712 mmHg 92%

    2 July, Tuesday

    Time Temperature Precipitation Wind Pressure Humidity
    00:00 +24°C° 1.9 mm 2 mps 712 mmHg 92%
    01:00 +23°C° 1.9 mm 2 mps 711 mmHg 91%
    02:00 +23°C° 0.5 mm 2 mps 711 mmHg 89%
    03:00 +23°C° 0.5 mm 1 mps 711 mmHg 88%
    04:00 +23°C° 0.5 mm 1 mps 712 mmHg 86%
    05:00 +23°C° 0 mm 1 mps 712 mmHg 85%
    06:00 +24°C° 0 mm 1 mps 712 mmHg 84%
    07:00 +24°C° 0 mm 1 mps 713 mmHg 84%
    08:00 +25°C° 0 mm 1 mps 713 mmHg 78%
    09:00 +27°C° 0 mm 2 mps 713 mmHg 72%
    10:00 +28°C° 0 mm 3 mps 714 mmHg 66%
    11:00 +28°C° 0.5 mm 3 mps 713 mmHg 68%
    12:00 +28°C° 0.5 mm 3 mps 713 mmHg 71%
    13:00 +28°C° 0.5 mm 3 mps 712 mmHg 73%
    14:00 +28°C° 1.2 mm 2 mps 712 mmHg 76%
    15:00 +27°C° 1.2 mm 2 mps 712 mmHg 80%
    16:00 +27°C° 1.2 mm 1 mps 711 mmHg 83%
    17:00 +26°C° 0.5 mm 1 mps 711 mmHg 85%
    18:00 +25°C° 0.5 mm 1 mps 712 mmHg 87%
    19:00 +24°C° 0.5 mm 1 mps 712 mmHg 88%
    20:00 +24°C° 0 mm 1 mps 712 mmHg 89%
    21:00 +24°C° 0 mm 1 mps 712 mmHg 89%
    22:00 +24°C° 0 mm 1 mps 713 mmHg 90%
    23:00 +24°C° 0 mm 1 mps 712 mmHg 90%
    Show more